Location: *
(47.6569°N, 7.4256°E)
Time: 13:48:44
(UTC+00:00)

Cosmos 1867 - Pass Details

Date: 14 December 2019
Orbit: 777 x 799 km, 65.0° (Epoch: 27 January)

Event Time Altitude Azimuth Distance (km) Brightness Sun altitude
Rises 17:38:37 0° 320° (NW) 3,314 7.2 -19.2°
Reaches altitude 10° 17:41:05 10° 316° (NW) 2,379 6.4 -19.6°
Maximum altitude 17:46:27 58° 239° (WSW) 930 4.2 -20.5°
Drops below altitude 10° 17:51:45 10° 162° (SSE) 2,356 5.9 -21.3°
Sets 17:54:11 0° 158° (SSE) 3,279 6.7 -21.7°
